Pineville, WV

11:48 AM EDT on August 20, 2017 (GMT -0400)
Pineville

Weather History for KI16 - November, 2012

Change the Weather History Date:

Friday, November 9, 2012

  Actual Average (KBKW) Record (KBKW)
Temperature  
Mean Temperature 44 °F -  
Max Temperature 61 °F 55 °F 78 °F (1915)
Min Temperature 27 °F 36 °F 11 °F (1951)
Degree Days  
Heating Degree Days 21    
Moisture  
Dew Point 33 °F    
Average Humidity 79    
Maximum Humidity 100    
Minimum Humidity 36    
Precipitation  
Precipitation 0.00 in - - ()
Sea Level Pressure  
Sea Level Pressure 30.28 in    
Wind  
Wind Speed - (North)    
Max Wind Speed -    
Max Gust Speed -    
Visibility 10 miles    
Events      
Averages and records for this station are not official NWS values.
T = Trace of Precipitation, MM = Missing Value Source: NWS Daily Summary

Daily Weather History Graph

Daily Weather History Graph

Search for Another Location

Airport or City:

Trip Planner

Search our weather history database for the weather conditions in past years. The results will help you decide how hot, cold, wet, or windy it might be!

Date:

Astronomy

Nov. 09, 2012 Rise Set
Actual Time 7:00 AM EST 5:19 PM EST
Civil Twilight 6:32 AM EST 5:47 PM EST
Nautical Twilight 6:01 AM EST 6:18 PM EST
Astronomical Twilight 5:30 AM EST 6:49 PM EST
Moon 2:02 AM EST (11/9) 2:27 PM EST (11/9)
Length of Visible Light 11h 14m
Length of Day
10h 19m
Waning Crescent, 23% of the Moon is Illuminated
Nov 9
Waning Crescent
Nov 13
New
Nov 20
First Quarter
Nov 28
Full
Dec 6
Last Quarter

Hourly Weather History & Observations

Time (EST) Temp. Dew Point Humidity Pressure Visibility Wind Dir Wind Speed Gust Speed Precip Events Conditions
12:15 AM 30.2 °F 29.3 °F 96% 30.24 in 10.0 mi North - - N/A   Clear
12:35 AM 30.2 °F 29.5 °F 97% 30.24 in 10.0 mi North - - N/A   Clear
12:55 AM 30.2 °F 29.3 °F 96% 30.24 in 10.0 mi North - - N/A   Clear
1:15 AM 29.8 °F 29.3 °F 98% 30.24 in 10.0 mi North - - N/A   Clear
1:35 AM 29.7 °F 28.9 °F 97% 30.24 in 10.0 mi North - - N/A   Clear
1:55 AM 29.5 °F 29.1 °F 99% 30.24 in 10.0 mi North - - N/A   Clear
2:15 AM 29.3 °F 28.8 °F 98% 30.25 in 10.0 mi North - - N/A   Clear
2:35 AM 29.1 °F 28.8 °F 99% 30.25 in 10.0 mi North - - N/A   Clear
2:55 AM 28.9 °F 28.2 °F 97% 30.25 in 10.0 mi North - - N/A   Clear
3:15 AM 28.4 °F 28.2 °F 99% 30.25 in 10.0 mi North - - N/A   Clear
3:35 AM 28.4 °F 28.2 °F 99% 30.25 in 10.0 mi North - - N/A   Clear
3:55 AM 28.8 °F 28.4 °F 99% 30.25 in 10.0 mi North - - N/A   Clear
4:15 AM 28.4 °F 28.0 °F 99% 30.26 in 10.0 mi North - - N/A   Clear
4:35 AM 28.4 °F 28.2 °F 99% 30.27 in 10.0 mi North - - N/A   Clear
4:55 AM 28.2 °F 28.0 °F 99% 30.28 in 10.0 mi North - - N/A   Clear
5:15 AM 28.0 °F 27.9 °F 99% 30.29 in 10.0 mi North - - N/A   Clear
5:35 AM 27.9 °F 27.9 °F 100% 30.29 in 10.0 mi North - - N/A   Clear
5:55 AM 27.9 °F 27.9 °F 100% 30.30 in 10.0 mi North - - N/A   Clear
6:15 AM 27.5 °F 27.5 °F 100% 30.30 in 10.0 mi North - - N/A   Clear
6:35 AM 27.5 °F 27.5 °F 100% 30.30 in 10.0 mi North - - N/A   Clear
6:55 AM 27.5 °F 27.5 °F 100% 30.31 in 10.0 mi North - - N/A   Clear
7:15 AM 27.5 °F 27.5 °F 100% 30.31 in 10.0 mi North - - N/A   Clear
7:35 AM 27.7 °F 27.7 °F 100% 30.32 in 10.0 mi North - - N/A   Clear
7:55 AM 28.9 °F 28.9 °F 100% 30.32 in 10.0 mi North - - N/A   Clear
8:15 AM 30.9 °F 30.9 °F 100% 30.33 in 10.0 mi North - - N/A   Clear
8:35 AM 32.9 °F 32.0 °F 96% 30.34 in 10.0 mi North - - N/A   Clear
8:55 AM 34.7 °F 32.9 °F 93% 30.34 in 10.0 mi North - - N/A   Clear
9:15 AM 37.2 °F 34.3 °F 89% 30.34 in 10.0 mi North - - N/A   Clear
9:35 AM 41.0 °F 34.5 °F 78% 30.34 in 10.0 mi North - - N/A   Clear
9:55 AM 45.5 °F 34.5 °F 65% 30.35 in 10.0 mi North - - N/A   Clear
10:15 AM 46.8 °F 34.7 °F 63% 30.35 in 10.0 mi North - - N/A   Clear
10:35 AM 48.2 °F 35.2 °F 61% 30.34 in 10.0 mi North - - N/A   Clear
10:55 AM 49.6 °F 34.0 °F 55% 30.34 in 10.0 mi North - - N/A   Clear
11:15 AM 51.3 °F 33.1 °F 50% 30.34 in 10.0 mi North - - N/A   Clear
11:35 AM 52.9 °F 33.6 °F 48% 30.33 in 10.0 mi North - - N/A   Clear
11:55 AM 53.6 °F 33.8 °F 47% 30.32 in 10.0 mi North - - N/A   Clear
12:15 PM 54.1 °F 35.4 °F 49% 30.31 in 10.0 mi North - - N/A   Clear
12:35 PM 55.8 °F 35.4 °F 46% 30.30 in 10.0 mi North - - N/A   Clear
12:55 PM 56.5 °F 35.8 °F 46% 30.30 in 10.0 mi North - - N/A   Clear
1:15 PM 58.3 °F 36.0 °F 43% 30.28 in 10.0 mi North - - N/A   Clear
1:35 PM 58.1 °F 34.3 °F 41% 30.27 in 10.0 mi North - - N/A   Clear
1:55 PM 59.2 °F 34.0 °F 39% 30.27 in 10.0 mi North - - N/A   Clear
2:15 PM 59.7 °F 33.6 °F 37% 30.26 in 10.0 mi North - - N/A   Clear
2:35 PM 60.8 °F 34.0 °F 37% 30.25 in 10.0 mi North - - N/A   Clear
2:55 PM 61.3 °F 34.3 °F 36% 30.25 in 10.0 mi North - - N/A   Clear
3:15 PM 59.0 °F 37.4 °F 45% 30.25 in 10.0 mi North - - N/A   Clear
3:35 PM 60.3 °F 36.0 °F 40% 30.25 in 10.0 mi North - - N/A   Clear
3:55 PM 55.9 °F 34.3 °F 44% 30.25 in 10.0 mi North - - N/A   Clear
4:15 PM 50.7 °F 37.2 °F 60% 30.25 in 10.0 mi North - - N/A   Clear
4:35 PM 49.1 °F 37.4 °F 64% 30.25 in 10.0 mi North - - N/A   Clear
4:55 PM 47.7 °F 37.4 °F 68% 30.25 in 10.0 mi North - - N/A   Clear
5:15 PM 46.8 °F 37.0 °F 69% 30.25 in 10.0 mi North - - N/A   Clear
5:35 PM 44.8 °F 36.7 °F 73% 30.25 in 10.0 mi North - - N/A   Clear
5:55 PM 43.2 °F 36.5 °F 77% 30.25 in 10.0 mi North - - N/A   Clear
6:15 PM 41.9 °F 36.0 °F 79% 30.26 in 10.0 mi North - - N/A   Clear
6:35 PM 41.0 °F 36.0 °F 82% 30.26 in 10.0 mi North - - N/A   Clear
6:55 PM 40.1 °F 35.6 °F 84% 30.26 in 10.0 mi North - - N/A   Clear
7:15 PM 39.2 °F 34.7 °F 84% 30.26 in 10.0 mi North - - N/A   Clear
7:35 PM 38.8 °F 34.9 °F 86% 30.26 in 10.0 mi North - - N/A   Clear
7:55 PM 38.1 °F 34.3 °F 86% 30.27 in 10.0 mi North - - N/A   Clear
8:15 PM 37.4 °F 34.5 °F 89% 30.28 in 10.0 mi North - - N/A   Clear
8:55 PM 36.7 °F 34.2 °F 91% 30.28 in 10.0 mi North - - N/A   Clear
9:15 PM 36.5 °F 34.2 °F 91% 30.29 in 10.0 mi North - - N/A   Clear
9:35 PM 36.0 °F 34.0 °F 93% 30.29 in 10.0 mi North - - N/A   Clear
9:55 PM 35.8 °F 34.0 °F 93% 30.30 in 10.0 mi North - - N/A   Clear
10:35 PM 35.1 °F 33.6 °F 94% 30.30 in 10.0 mi North - - N/A   Clear
10:55 PM 34.9 °F 33.6 °F 95% 30.30 in 10.0 mi North - - N/A   Clear
11:15 PM 34.9 °F 33.6 °F 95% 30.30 in 10.0 mi North - - N/A   Clear
11:55 PM 34.2 °F 33.3 °F 97% 30.29 in 10.0 mi North - - N/A   Clear